Volver al catálogo

DELTA 1 DEB

LostUNKNOWN
NORAD 28671·DEBRIS·🇺🇸 United States

Lanzado Jul 4, 1968 desde Vandenberg Space Force Base

Loading…

Próximos Pases (próximas 24 horas)

TLE

ObsoletoSource: Space-Track

Época: Nov 6, 2022, 09:08 UTC

1 28671U 68055U   22310.38092003  .00004776  00000-0  47141-2 0  9994
2 28671 120.6421 173.2128 1491561 119.8429  42.1291 11.60352203755804

Sigue DELTA 1 DEB en tiempo real con AllMySat

Download on the App Store